Weather Roundup
Issued by NWS Chicago, IL

Home | Current Version | Previous Version | Text Only | Print | Product List | Glossary Off
Versions: 1 2 3 4 5 6 7 8 9 10 11 12 13 14 15 16 17 18 19 20 21 22 23 24 25 26 27 28 29 30 31 32 33 34 35 36 37 38 39 40 41 42 43 44 45 46 47 48 49 50

352
NZUS59 KLOT 291812
HRRLOT

CHICAGO AREA WEATHER ROUNDUP
NATIONAL WEATHER SERVICE CHICAGO/ROMEOVILLE IL
100 PM CDT THU SEP 29 2016

NOTE: "FAIR" INDICATES FEW OR NO CLOUDS BELOW 12,000 FEET WITH NO
SIGNIFICANT WEATHER AND/OR OBSTRUCTIONS TO VISIBILITY.

* THESE STATIONS ARE NOT UNDER NWS QUALITY CONTROL. THEY ALSO MAY NOT
  REPORT WEATHER SUCH AS PRECIPITATION OR FOG.

ILZ005-006-012>014-019>023-291900-
NORTHEAST ILLINOIS

CITY           SKY/WX    TMP DP  RH WIND       PRES   REMARKS
OHARE          LGT RAIN  63  59  87 NE17G26   30.18S
6HR MIN TEMP:  61; 6HR MAX TEMP:  64; 6HR PCP:  0.05;

MIDWAY         CLOUDY    63  59  87 NE21G26   30.16F FOG
6HR MIN TEMP:  62; 6HR MAX TEMP:  66;

AURORA         CLOUDY    67  57  70 NE18G28   30.19F
6HR MIN TEMP:  62; 6HR MAX TEMP:  68; 6HR PCP:  0.01;

LANSING*       CLOUDY    64  62  94 NE10G17   30.15F
JOLIET*        LGT RAIN  65  61  86 NE13G21   30.17S
WAUKEGAN       CLOUDY    62  56  80 N12G22    30.22S
6HR MIN TEMP:  59; 6HR MAX TEMP:  63;

DUPAGE AIRPORT LGT RAIN  62  57  83 N20G25    30.19S
6HR MIN TEMP:  60; 6HR MAX TEMP:  65; 6HR PCP:  0.03;

WHEELING       LGT RAIN  62  58  86 N14G22    30.21S
6HR MIN TEMP:  62; 6HR MAX TEMP:  64; 6HR PCP:  0.03;

KANKAKEE*      CLOUDY    66  59  77 NE10      30.15F
MORRIS*        CLOUDY    63  60  91 N3        30.16F
LEWIS AIRPORT* CLOUDY    64  62  94 NE18G25   30.17S
NORTHERLY ISL    N/A     61  58  90 N18         N/A
$$

WIZ051-052-058>065-066-070>072-291900-
SOUTHEAST WISCONSIN

CITY           SKY/WX    TMP DP  RH WIND       PRES   REMARKS
MILWAUKEE      PTSUNNY   64  56  75 N22G30    30.27F
6HR MIN TEMP:  59; 6HR MAX TEMP:  66;

KENOSHA*       CLOUDY    62  56  80 N13G25    30.25R
RACINE*        CLOUDY    61  56  83 N15       30.26S
BURLINGTON     CLOUDY    64  52  67 NE17G28   30.26R
WAUKESHA       CLOUDY    64  55  72 NE17G29   30.29S
WEST BEND      PTSUNNY   70  63  78 NE20G26   30.30S
$$

INZ001>003-010>013-019-020-291900-
NORTHWEST INDIANA

CITY           SKY/WX    TMP DP  RH WIND       PRES   REMARKS
GARY*          CLOUDY    64  61  88 NE17G29   30.16S
MICHIGAN CITY* NOT AVBL
RENSSELAER*    NOT AVBL
VALPARAISO     CLOUDY    64  59  83 NE9       30.14F
$$

LMZ740>746-291900-
SOUTHERN LAKE MICHIGAN

STATION/POSITION TIME  SKY/WX   TEMP WIND        PRES    VSBY
                                AIR  DIR/SP/G
                 (UTC)          (F)  (DEG/KT/KT) (MB)    (MI)
HARRISON CRIB    1740            63   40/ 27/ 31   N/A
BURNHAM HARBOR   1800            62   40/ 20/ 21   N/A
CALUMET HARBOR   1748            63   30/ 16/ 23 1020.9S
BURNS HARBOR     1740            63   50/ 21/ 23 1021.3R
MICHIGAN CITY    1740            61   10/ 19/ 21   N/A
$$

ABBREVIATIONS USED IN REMARKS
   TC - TEMPERATURE IN CELSIUS
  WCI - WIND CHILL INDEX
   HX - HEAT INDEX
  VSB - VISIBILITY
$$




USA.gov is the U.S. government's official web portal to all federal, state and local government web resources and services.